[[{"header":{"parameterUnit":"m.s-1","parameterCategory":1,"la1":30.2991,"la2":30.254,"lo1":-89.0895,"lo2":-89.0444,"dy":0.0017,"dx":0.0017,"nx":28,"ny":28,"refTime":"2023-10-21T21:00:00:Z","depth":0,"parameterNumber":2,"parameterNumberName":"U-component_of_WINDS"},"data":[0,0,0,0,0,0,0,0,0,0,0,0,0,0,0,0,0,0,0,0,0,0,0,0,0,0,0,0,0,0,0,0,0,0,0,0,0,0,0,0,0,0,0,0,0,0,0,0,0,0,0,0,0,0,0,0,0,0,0.4725,0.4726,0,0.4824,0.4825,0.4826,0.4875,0.4875,0.4875,0.4875,0.4976,0.4979,0.4981,0,0,0,0,0,0,0,0,0,0,0,0,0,0.4579,0.4582,0.4725,0.4726,0.4728,0.4824,0.4825,0.4827,0.4875,0.4875,0.4875,0.4875,0.4975,0.4978,0.4982,0,0,0,0,0,0,0,0,0,0,0,0,0,0.4657,0.4583,0.4725,0.4763,0.4768,0.4824,0.4825,0.4827,0.4875,0.4875,0.4875,0.4875,0.4974,0.4978,0.4982,0.5007,0,0,0.4994,0.4996,0,0,0,0,0,0,0,0,0.4652,0.4662,0.4757,0.4761,0.4766,0.4837,0.4811,0.4887,0.4875,0.4834,0.4875,0.4875,0.493,0.4938,0.4956,0.5012,0.5016,0.4995,0.4997,0.4999,0.5,0,0,0,0,0,0,0,0.4647,0.4658,0.4764,0.4758,0.4764,0.4776,0.4787,0.4826,0.4881,0.4838,0.4842,0.4853,0.4932,0.4952,0.4959,0.5017,0.4995,0.4998,0.5001,0.5002,0.51,0.5101,0,0,0,0,0,0,0.4635,0.4653,0.4761,0.4767,0.4708,0.4779,0.4791,0.4814,0.4881,0.4891,0.4853,0.4855,0.4945,0.4954,0.4963,0.4997,0.4999,0.5003,0.5005,0.51,0.51,0.5101,0,0,0,0,0,0,0.4632,0.4644,0.4757,0.4711,0.4727,0.4781,0.4807,0.4816,0.4836,0.4892,0.4902,0.4862,0.4946,0.4957,0.4996,0.5001,0.5004,0.5008,0.51,0.51,0.5101,0.5066,0,0,0,0,0,0,0.4628,0.4643,0.4653,0.4711,0.4729,0.4788,0.4807,0.4818,0.4843,0.4846,0.4904,0.4913,0.4946,0.499,0.5,0.5007,0.5011,0.51,0.51,0.51,0.5067,0.5065,0.5063,0,0,0,0,0,0.4622,0.4638,0.4653,0.4665,0.4742,0.4788,0.4799,0.4837,0.4843,0.4853,0.489,0.4911,0.4999,0.4993,0.5005,0.5013,0.51,0.51,0.51,0.5067,0.5065,0.5063,0,0,0,0,0,0,0.4578,0.4647,0.4663,0.4699,0.4738,0.4797,0.4811,0.4833,0.487,0.4872,0.4918,0.493,0.4965,0.4994,0.4986,0.5042,0.5052,0.5054,0.5022,0.5021,0.5019,0.5012,0.5015,0,0,0,0,0,0.4573,0.4605,0.4663,0.4689,0.4707,0.4756,0.4777,0.4803,0.4845,0.4862,0.4901,0.494,0.4978,0.5001,0.5037,0.5071,0.5085,0.5083,0.5081,0.5079,0.5081,0.5103,0.5103,0.5102,0.5102,0.5102,0,0,0.4562,0.4603,0.462,0.4681,0.4714,0.4746,0.4769,0.4802,0.4827,0.4867,0.4906,0.4936,0.4984,0.5021,0.5039,0.5045,0.5085,0.508,0.5078,0.5081,0.5103,0.5103,0.5103,0.5102,0.5102,0.5102,0,0,0.4558,0.4592,0.4618,0.4651,0.4701,0.4734,0.474,0.4796,0.4818,0.4858,0.4889,0.492,0.4982,0.5015,0.504,0.5051,0.5073,0.5062,0.5053,0.5073,0.5073,0.5073,0.5078,0.508,0.5063,0.5063,0.5063,0,0.4538,0.4588,0.4628,0.466,0.4687,0.4725,0.4752,0.4782,0.4842,0.4859,0.4865,0.4945,0.498,0.5026,0.5029,0.5047,0.5057,0.5055,0.507,0.5071,0.5071,0.5077,0.5078,0.5062,0.5062,0.5062,0.5062,0,0.4561,0.4595,0.461,0.4668,0.4696,0.4725,0.477,0.4794,0.4818,0.485,0.4892,0.4935,0.4982,0.4995,0.5018,0.5045,0.5047,0.5061,0.5071,0.5069,0.5075,0.5077,0.5059,0.506,0.506,0.5061,0,0,0.4531,0.4612,0.4617,0.4644,0.4703,0.473,0.4762,0.4808,0.4828,0.4868,0.4896,0.4949,0.4963,0.4991,0.5019,0.5037,0.5044,0.5049,0.5051,0.5047,0.5078,0.5067,0.5069,0.5059,0.506,0.506,0.5074,0,0.4536,0.4595,0.4633,0.4677,0.471,0.4748,0.4775,0.4815,0.4846,0.4879,0.4913,0.495,0.4965,0.4982,0.5002,0.5039,0.5051,0.5039,0.5087,0.5088,0.5074,0.5072,0.506,0.5071,0.5076,0.5077,0.5077,0,0.455,0.459,0.4636,0.4693,0.4709,0.4733,0.4779,0.481,0.4856,0.4878,0.491,0.4939,0.4975,0.4982,0.5033,0.5024,0.5046,0.5068,0.5069,0.5075,0.5082,0.5078,0.5075,0.5077,0.5081,0.508,0.508,0,0.4524,0.459,0.4627,0.4649,0.4716,0.4732,0.4761,0.4807,0.4833,0.4874,0.4892,0.4936,0.496,0.4994,0.5034,0.5036,0.5082,0.5092,0.5101,0.51,0.5109,0.5108,0.511,0.5122,0.5122,0.5122,0.5122,0,0.4526,0.4554,0.4617,0.4639,0.4672,0.4716,0.4747,0.4779,0.482,0.485,0.4885,0.4913,0.4964,0.4999,0.503,0.5068,0.5079,0.5098,0.5106,0.5095,0.5093,0.511,0.5111,0.5123,0.5122,0.5122,0.5122,0,0.4503,0.4546,0.4589,0.465,0.4666,0.4687,0.4739,0.4763,0.4797,0.4835,0.4846,0.4899,0.4941,0.4985,0.5042,0.5063,0.5101,0.5112,0.5085,0.509,0.5097,0.5096,0.5111,0.5115,0.5123,0.5123,0.5123,0,0.4501,0.4524,0.4587,0.461,0.4638,0.4674,0.4702,0.4747,0.4774,0.4829,0.4847,0.4892,0.493,0.4996,0.504,0.5084,0.5097,0.5099,0.5104,0.5092,0.5098,0.5096,0.51,0.5097,0.5097,0.5097,0.5097,0,0.4494,0.4515,0.4553,0.4599,0.463,0.4669,0.4708,0.4725,0.4778,0.4806,0.485,0.488,0.4939,0.4984,0.5034,0.5064,0.509,0.5095,0.51,0.5089,0.5073,0.5082,0.5081,0.5094,0.5094,0.5095,0.5095,0.5095,0.4483,0.4505,0.4554,0.4595,0.463,0.4666,0.4692,0.473,0.4767,0.4819,0.4843,0.4888,0.4935,0.5005,0.5035,0.5071,0.5078,0.5084,0.5086,0.5087,0.5085,0.5067,0.508,0.508,0.508,0.508,0.5081,0,0.4478,0.4512,0.455,0.4604,0.4637,0.4659,0.4704,0.473,0.4769,0.4811,0.4849,0.49,0.4944,0.4992,0.5039,0.5059,0.5072,0.507,0.5069,0.5076,0.5075,0.5067,0.5059,0.5059,0.5059,0.5059,0.5059,0.5059,0.448,0.4519,0.4546,0.4603,0.4637,0.468,0.4705,0.4739,0.4773,0.4829,0.4866,0.4897,0.4942,0.4993,0.5035,0.5048,0.5064,0.5059,0.5075,0.5074,0.5076,0.5077,0.507,0.5062,0.5062,0.5073,0.5073,0.5073]},{"header":{"parameterUnit":"m.s-1","parameterCategory":1,"la1":30.2991,"la2":30.254,"lo1":-89.0895,"lo2":-89.0444,"dy":0.0017,"dx":0.0017,"nx":28,"ny":28,"refTime":"2023-10-21T21:00:00:Z","depth":0,"parameterNumber":3,"parameterNumberName":"V-component_of_WINDS"},"data":[0,0,0,0,0,0,0,0,0,0,0,0,0,0,0,0,0,0,0,0,0,0,0,0,0,0,0,0,0,0,0,0,0,0,0,0,0,0,0,0,0,0,0,0,0,0,0,0,0,0,0,0,0,0,0,0,0,0,1.1939,1.1939,0,1.1919,1.1918,1.1918,1.1917,1.1917,1.1917,1.1918,1.1893,1.1892,1.1892,0,0,0,0,0,0,0,0,0,0,0,0,0,1.1974,1.1974,1.1939,1.1939,1.1938,1.1919,1.1918,1.1918,1.1917,1.1917,1.1917,1.1918,1.1894,1.1893,1.1891,0,0,0,0,0,0,0,0,0,0,0,0,0,1.1957,1.1974,1.1939,1.1935,1.1935,1.1919,1.1918,1.1918,1.1917,1.1917,1.1918,1.1918,1.1894,1.1893,1.1891,1.1876,0,0,1.1887,1.1887,0,0,0,0,0,0,0,0,1.1958,1.1956,1.1936,1.1936,1.1935,1.1921,1.1922,1.1904,1.1917,1.1924,1.1918,1.1918,1.1902,1.19,1.1895,1.1875,1.1874,1.1887,1.1886,1.1886,1.1885,0,0,0,0,0,0,0,1.1959,1.1957,1.1931,1.1936,1.1935,1.1934,1.1932,1.1919,1.1911,1.1923,1.1923,1.1921,1.1902,1.1896,1.1895,1.1874,1.1887,1.1886,1.1885,1.1885,1.1842,1.1841,0,0,0,0,0,0,1.1961,1.1958,1.1931,1.193,1.1948,1.1933,1.1931,1.1925,1.1911,1.1909,1.192,1.1921,1.1899,1.1896,1.1894,1.1876,1.1886,1.1885,1.1884,1.1842,1.1842,1.1841,0,0,0,0,0,0,1.1962,1.1959,1.1932,1.1944,1.194,1.1932,1.1926,1.1924,1.1919,1.1909,1.1907,1.1917,1.1899,1.1896,1.1881,1.1875,1.1884,1.1883,1.1843,1.1842,1.1842,1.184,0,0,0,0,0,0,1.1963,1.1959,1.1954,1.1944,1.194,1.192,1.1925,1.1924,1.1917,1.1918,1.1905,1.1903,1.1899,1.1883,1.188,1.1874,1.1882,1.1843,1.1842,1.1842,1.1841,1.184,1.1839,0,0,0,0,0,1.1965,1.1953,1.1954,1.195,1.1933,1.192,1.1918,1.1914,1.1917,1.1911,1.1905,1.1904,1.1877,1.1882,1.1878,1.1871,1.1843,1.1843,1.1842,1.1841,1.184,1.1839,0,0,0,0,0,0,1.1961,1.1952,1.1952,1.1937,1.193,1.192,1.1912,1.1912,1.1902,1.1903,1.1897,1.1894,1.1881,1.1874,1.188,1.1857,1.186,1.1859,1.1861,1.186,1.1859,1.1861,1.1881,0,0,0,0,0,1.1958,1.195,1.1942,1.1929,1.1926,1.192,1.1914,1.1912,1.1904,1.19,1.1893,1.1884,1.1873,1.1866,1.1856,1.184,1.1838,1.1834,1.1833,1.1832,1.1831,1.1824,1.1822,1.1839,1.1839,1.1839,0,0,1.1953,1.1947,1.1941,1.1929,1.1923,1.1913,1.1917,1.1907,1.19,1.1898,1.1884,1.1879,1.1869,1.1854,1.1847,1.1849,1.1826,1.1831,1.1831,1.183,1.1823,1.1821,1.182,1.1838,1.1838,1.1838,0,0,1.1938,1.1933,1.1923,1.1917,1.1909,1.1905,1.1903,1.1894,1.1891,1.1878,1.1877,1.1868,1.185,1.1843,1.1837,1.1824,1.1822,1.182,1.1815,1.1808,1.1807,1.1805,1.1801,1.1799,1.1819,1.1819,1.1819,0,1.1932,1.1919,1.1917,1.1908,1.1902,1.1902,1.1892,1.1887,1.1875,1.1871,1.1873,1.1852,1.1845,1.1829,1.1827,1.1821,1.1819,1.1821,1.1807,1.1806,1.1805,1.1801,1.1799,1.1819,1.1819,1.1819,1.1819,0,1.1912,1.1904,1.1896,1.1887,1.1881,1.1871,1.1867,1.1861,1.186,1.1857,1.1844,1.1836,1.1825,1.1821,1.1819,1.1806,1.1807,1.1808,1.1812,1.1803,1.1799,1.1797,1.1818,1.1819,1.1819,1.1819,0,0,1.1893,1.1885,1.1882,1.1879,1.1871,1.1863,1.1854,1.1845,1.184,1.1833,1.1825,1.1811,1.1813,1.1806,1.1804,1.1797,1.1788,1.1799,1.1799,1.1798,1.1774,1.1774,1.1772,1.1788,1.1788,1.1787,1.1775,0,1.1878,1.1862,1.1861,1.1847,1.1839,1.184,1.1832,1.1826,1.1823,1.1816,1.1812,1.1802,1.1805,1.1801,1.1796,1.1791,1.1783,1.1791,1.178,1.178,1.1783,1.1769,1.1768,1.1757,1.1774,1.1773,1.1773,0,1.1858,1.1852,1.1837,1.1832,1.1829,1.1822,1.1814,1.1807,1.1801,1.1799,1.1794,1.1792,1.1783,1.1788,1.1774,1.178,1.1776,1.1773,1.1772,1.1771,1.1776,1.1768,1.1753,1.1752,1.1771,1.1771,1.1771,0,1.1846,1.1834,1.1824,1.1821,1.1815,1.181,1.1807,1.1801,1.1797,1.179,1.1787,1.1779,1.1774,1.1768,1.1765,1.1768,1.1752,1.1756,1.175,1.1751,1.1746,1.1746,1.1731,1.1744,1.1744,1.1744,1.1744,0,1.1829,1.182,1.1819,1.1813,1.1803,1.1803,1.1793,1.179,1.1785,1.1779,1.1779,1.1772,1.1769,1.1762,1.176,1.175,1.1747,1.1746,1.1745,1.1746,1.1746,1.1742,1.1743,1.1743,1.1743,1.1743,1.1743,0,1.1814,1.1813,1.1802,1.1798,1.1797,1.179,1.1786,1.178,1.1779,1.177,1.1768,1.1764,1.1757,1.1753,1.1743,1.1742,1.1731,1.173,1.1733,1.1733,1.1727,1.1728,1.1709,1.1707,1.1721,1.172,1.172,0,1.1803,1.1796,1.1792,1.1789,1.1786,1.178,1.1776,1.1775,1.1771,1.1765,1.176,1.1752,1.1746,1.1734,1.173,1.1723,1.1722,1.1716,1.1721,1.1722,1.1723,1.1723,1.1723,1.1715,1.1715,1.1715,1.1715,0,1.1784,1.1785,1.1779,1.1774,1.177,1.1766,1.1761,1.1758,1.1757,1.1752,1.1745,1.1741,1.1732,1.1724,1.1718,1.1714,1.1714,1.1714,1.1712,1.1712,1.1714,1.1714,1.1731,1.1714,1.1714,1.1714,1.1714,1.1714,1.1771,1.1766,1.1763,1.1757,1.1755,1.1751,1.1746,1.1745,1.1739,1.1733,1.1733,1.1725,1.1721,1.1712,1.1708,1.1702,1.1704,1.1701,1.17,1.17,1.17,1.1716,1.1701,1.1701,1.1701,1.1701,1.1701,0,1.1752,1.1751,1.1746,1.1742,1.1738,1.174,1.1736,1.1732,1.1726,1.1723,1.1718,1.171,1.1704,1.1701,1.1695,1.1691,1.1691,1.1689,1.1689,1.1688,1.1698,1.1701,1.1689,1.1689,1.1689,1.1689,1.1689,1.1689,1.1742,1.1735,1.1735,1.1726,1.1725,1.1719,1.1717,1.1714,1.1711,1.1703,1.1699,1.1697,1.1694,1.1688,1.1682,1.1682,1.1679,1.1678,1.1677,1.1686,1.1687,1.1689,1.1691,1.1677,1.1677,1.1667,1.1667,1.1667]}]]